Heute – Wetterdaten der letzten 3 Stunden im 5 Min. Intervall

Wetterdaten der letzten 3 Stunden im 5 Min. Intervall
Datum Aussentemperatur Luftdruck Luftfeuchtigkeit Windstärke Regen
24.02.18, 09:05 -2.1 °C 1024.2 hPa 59 % 1.8 km/h 0.0 mm
24.02.18, 08:55 -2.3 °C 1024.2 hPa 59 % 1.8 km/h 0.0 mm
24.02.18, 08:50 -2.4 °C 1024.1 hPa 60 % 1.8 km/h 0.0 mm
24.02.18, 08:45 -2.7 °C 1024.1 hPa 61 % 5.0 km/h 0.0 mm
24.02.18, 08:40 -2.8 °C 1024.0 hPa 61 % 10.1 km/h 0.0 mm
24.02.18, 08:35 -3.1 °C 1024.1 hPa 63 % 0.0 km/h 0.0 mm
24.02.18, 08:30 -3.4 °C 1024.1 hPa 64 % 11.9 km/h 0.0 mm
24.02.18, 08:25 -3.8 °C 1023.9 hPa 65 % 5.0 km/h 0.0 mm
24.02.18, 08:20 -3.9 °C 1023.9 hPa 66 % 0.0 km/h 0.0 mm
24.02.18, 08:15 -4.0 °C 1023.9 hPa 66 % 5.0 km/h 0.0 mm
24.02.18, 08:10 -4.1 °C 1024.0 hPa 66 % 1.8 km/h 0.0 mm
24.02.18, 08:05 -4.2 °C 1024.0 hPa 67 % 0.0 km/h 0.0 mm
24.02.18, 07:55 -4.4 °C 1024.0 hPa 68 % 5.0 km/h 0.0 mm
24.02.18, 07:50 -4.4 °C 1023.9 hPa 68 % 5.0 km/h 0.0 mm
24.02.18, 07:45 -4.4 °C 1023.8 hPa 68 % 0.0 km/h 0.0 mm
24.02.18, 07:40 -4.4 °C 1023.8 hPa 68 % 0.0 km/h 0.0 mm
24.02.18, 07:35 -4.4 °C 1023.8 hPa 68 % 1.8 km/h 0.0 mm
24.02.18, 07:30 -4.5 °C 1023.8 hPa 69 % 3.2 km/h 0.0 mm
24.02.18, 07:25 -4.4 °C 1023.7 hPa 69 % 0.0 km/h 0.0 mm
24.02.18, 07:20 -4.4 °C 1023.6 hPa 69 % 6.8 km/h 0.0 mm
24.02.18, 07:15 -4.4 °C 1023.6 hPa 69 % 0.0 km/h 0.0 mm
24.02.18, 07:10 -4.4 °C 1023.5 hPa 69 % 3.2 km/h 0.0 mm
24.02.18, 07:05 -4.4 °C 1023.6 hPa 69 % 3.2 km/h 0.0 mm
24.02.18, 06:55 -4.5 °C 1023.4 hPa 69 % 3.2 km/h 0.0 mm
24.02.18, 06:50 -4.6 °C 1023.4 hPa 70 % 5.0 km/h 0.0 mm
24.02.18, 06:45 -4.5 °C 1023.3 hPa 69 % 0.0 km/h 0.0 mm
24.02.18, 06:40 -4.4 °C 1023.3 hPa 69 % 3.2 km/h 0.0 mm
24.02.18, 06:35 -4.4 °C 1023.3 hPa 69 % 6.8 km/h 0.0 mm
24.02.18, 06:30 -4.3 °C 1023.2 hPa 69 % 0.0 km/h 0.0 mm
24.02.18, 06:25 -4.3 °C 1023.2 hPa 68 % 0.0 km/h 0.0 mm
24.02.18, 06:20 -4.3 °C 1023.3 hPa 69 % 0.0 km/h 0.0 mm
24.02.18, 06:15 -4.3 °C 1023.3 hPa 68 % 3.2 km/h 0.0 mm
24.02.18, 06:10 -4.3 °C 1023.3 hPa 69 % 1.8 km/h 0.0 mm